Regional Weather Roundup
Issued by NWS

Home | Current Version | Previous Version | Text Only | Print | Product List | Glossary On
Versions: 1 2 3 4 5 6 7 8 9 10 11 12 13 14 15 16 17 18 19 20 21 22 23 24 25 26 27 28 29 30 31 32 33 34 35 36 37 38 39 40 41 42 43 44 45 46 47 48 49 50
000
ASUS43 KLSX 270359
RWRMO

WEATHER SUMMARY FOR MISSOURI
NATIONAL WEATHER SERVICE SPRINGFIELD MO
1000 PM CST WED NOV 26 2014

NOTE: "FAIR" INDICATES FEW OR NO CLOUDS BELOW 12,000 FEET WITH NO
       SIGNIFICANT WEATHER AND/OR OBSTRUCTIONS TO VISIBILITY.
       CURRENT SKY AND/OR WEATHER CONDITIONS ARE NOT AVAILABLE FOR
       CHILLICOTHE AND FARMINGTON.

MOZ001>031-035>038-043-044-053-054-270500-
...NORTHERN AND WESTERN MISSOURI...

CITY           SKY/WX    TMP DP  RH WIND       PRES   REMARKS
KANSAS CTY INT CLOUDY    29  22  75 NW12      30.36R WCI  19
KANSAS C DTWN  CLOUDY    31  22  69 NW13G21   30.37R WCI  21
LEE`S SUMMIT   CLOUDY    30  22  72 NW18G24   30.34R WCI  18
ST JOSEPH      CLOUDY    27  20  75 N21G29    30.39R WCI  13
CHILLICOTHE      N/A     31  26  82 N8        30.31R WCI  23
KIRKSVILLE     CLOUDY    29  27  92 N12       30.25R FOG     WCI  19

$$
MOZ066>068-077>081-088>096-101>105-270500-
...SOUTHWEST MISSOURI...

CITY           SKY/WX    TMP DP  RH WIND       PRES   REMARKS
SPRINGFIELD    CLOUDY    34  25  69 NW23      30.28R WCI  22
JOPLIN         PTCLDY    32  24  72 NW12      30.36R WCI  23

$$
MOZ032>034-039>042-045>050-055>058-069>072-270500-
...CENTRAL MISSOURI...

CITY           SKY/WX    TMP DP  RH WIND       PRES   REMARKS
COLUMBIA       CLOUDY    33  30  88 NW17G25   30.20R WCI  22
JEFFERSON CITY CLOUDY    34  29  82 NW14G22   30.23R WCI  25
ROLLA          CLOUDY    31  28  89 W18G28    30.17R FOG     WCI  19
SEDALIA        CLOUDY    32  27  81 NW16      30.28R WCI  21
OSAGE BEACH    CLOUDY    34  25  69 NW10G18   30.24R WCI  26

$$
MOZ051-052-059>065-270500-
...EAST CENTRAL MISSOURI...

CITY           SKY/WX    TMP DP  RH WIND       PRES   REMARKS
ST LOUIS INTL  LGT SNOW  34  31  88 N6        30.13R FOG     WCI  29
SPIRIT OF STL  LGT SNOW  34  32  92 NW14      30.13R FOG     WCI  25
ST CHARLES     CLOUDY    33  32  96 N7        30.14R FOG     WCI  27

$$
MOZ072>076-082>087-097>100-106>115-270500-
...SOUTH CENTRAL AND SOUTHEAST MISSOURI...

CITY           SKY/WX    TMP DP  RH WIND       PRES   REMARKS
CAPE GIRARDEAU CLOUDY    37  35  92 W7        30.11R
FARMINGTON     CLOUDY    36  32  87 NW9G17    30.12R WCI  29
POPLAR BLUFF   CLOUDY    38  32  79 W6        30.13R
WEST PLAINS    CLOUDY    37  27  67 NW18G30   30.18R WCI  27

$$


USA.gov is the U.S. government's official web portal to all federal, state and local government web resources and services.